{"data":{"norad_id":39430,"intl_designator":"2013-066Q","name":"GOMX-1","alt_names":[],"object_type":"PAYLOAD","status":"ACTIVE","operator":null,"country":"DEN","launch_date":"2013-11-21","launch_site_code":"DLS","launch_vehicle":null,"mission":null,"orbit_class":"UNKNOWN","rcs_meters":0.0533,"size_class":null,"mass_kg":null,"dimensions":null,"purposes":["comms","tech_demo"],"wikipedia_slug":null,"has_3d_model":false,"image_url":null,"decayed_at":null,"tle_current":{"epoch":"2026-09-20T04:02:26.131200Z","epoch_age_seconds":42982,"freshness":"FRESH","line1":"1 39430U 13066Q   26263.16835800  .00001266  00000+0  19453-3 0  9994","line2":"2 39430  97.6439  97.6452 0128912 131.7046 229.5275 14.69709394683862","mean_motion":14.69709394,"eccentricity":0.0128912,"inclination_deg":97.6439,"raan_deg":97.6452,"arg_perigee_deg":131.7046,"mean_anomaly_deg":229.5275,"bstar":0.00019453,"rev_number":68386,"period_min":97.978553166953,"perigee_km":571.24019734554,"apogee_km":752.75172135672,"semimajor_km":7040.1329593511,"source":"CELESTRAK","updated_at":"2026-09-20T09:00:48.022949Z"}}}